Weather History for Billings, MT

Change the Weather History Date:

Thursday, May 9, 2013

  Actual Average Record
Temperature  
Mean Temperature 59 °F 54 °F  
Max Temperature 75 °F 66 °F 86 °F (1987)
Min Temperature 43 °F 42 °F 27 °F (2002)
Degree Days  
Heating Degree Days 6 12  
Month to date heating degree days 104 118  
Since 1 July heating degree days 6196 6495  
Cooling Degree Days 0 0  
Month to date cooling degree days 0 0  
Year to date cooling degree days 0 1  
Growing Degree Days 9 (Base 50)    
Moisture  
Dew Point 39 °F    
Average Humidity 52    
Maximum Humidity 76    
Minimum Humidity 27    
Precipitation  
Precipitation 0.06 in 0.07 in 1.08 in (2011)
Month to date precipitation 0.08 0.58  
Year to date precipitation 2.24 4.26  
Snow  
Snow 0.00 in 0.10 in 5.70 in (1986)
Month to date snowfall T 1.1  
Since 1 July snowfall 40.4 54.1  
Snow Depth 0.00 in    
Sea Level Pressure  
Sea Level Pressure 30.09 in    
Wind  
Wind Speed 7 mph (North)    
Max Wind Speed 22 mph    
Max Gust Speed 27 mph    
Visibility 10 miles    
Events Rain , Thunderstorm    
T = Trace of Precipitation, MM = Missing Value Source: NWS Daily Summary

Daily Weather History Graph

Daily Weather History Graph

Search for Another Location

Airport:

Trip Planner

Search our weather history database for the weather conditions in past years. The results will help you decide how hot, cold, wet, or windy it might be!

Date:

Astronomy

May. 09, 2013 Rise Set
Actual Time 5:49 AM MDT 8:32 PM MDT
Civil Twilight 5:15 AM MDT 9:06 PM MDT
Nautical Twilight 4:32 AM MDT 9:49 PM MDT
Astronomical Twilight 3:42 AM MDT 10:40 PM MDT
Moon 5:37 AM MDT (5/9) 8:30 PM MDT (5/9)
Length of Visible Light 15h 50m
Length of Day
14h 42m
Waning Crescent, 0% of the Moon is Illuminated
May 9
Waning Crescent
May 9
New
May 17
First Quarter
May 24
Full
May 31
Last Quarter

Hourly Weather History & Observations

Time (MDT) Temp. Windchill Dew Point Humidity Pressure Visibility Wind Dir Wind Speed Gust Speed Precip Events Conditions
12:53 AM 51.1 °F - 37.0 °F 59% 30.09 in 10.0 mi North 8.1 mph - N/A   Clear
1:53 AM 50.0 °F - 36.0 °F 59% 30.09 in 10.0 mi NNE 8.1 mph - N/A   Clear
2:53 AM 48.0 °F - 36.0 °F 63% 30.08 in 10.0 mi North 8.1 mph - N/A   Clear
3:53 AM 48.9 °F - 36.0 °F 61% 30.08 in 10.0 mi North 8.1 mph - N/A   Clear
4:53 AM 48.0 °F - 36.0 °F 63% 30.09 in 10.0 mi North 9.2 mph - N/A   Partly Cloudy
5:53 AM 43.0 °F 37.2 °F 35.1 °F 74% 30.12 in 10.0 mi NW 10.4 mph - N/A   Partly Cloudy
6:53 AM 46.0 °F 43.1 °F 36.0 °F 68% 30.12 in 10.0 mi NW 5.8 mph - N/A   Partly Cloudy
7:53 AM 46.9 °F - 37.0 °F 68% 30.13 in 10.0 mi WSW 8.1 mph - N/A   Scattered Clouds
8:53 AM 53.1 °F - 37.9 °F 57% 30.13 in 10.0 mi SW 6.9 mph - N/A   Scattered Clouds
9:53 AM 57.0 °F - 39.0 °F 51% 30.12 in 10.0 mi SSW 8.1 mph - N/A   Partly Cloudy
10:53 AM 62.6 °F - 39.2 °F 42% 30.15 in 10.0 mi South 4.6 mph - N/A   Partly Cloudy
11:53 AM 66.2 °F - 39.2 °F 37% 30.14 in 10.0 mi Variable 4.6 mph - N/A   Partly Cloudy
12:53 PM 69.1 °F - 39.0 °F 33% 30.09 in 10.0 mi North - - N/A   Partly Cloudy
1:53 PM 71.6 °F - 37.4 °F 29% 30.12 in 10.0 mi ENE 9.2 mph 18.4 mph N/A   Partly Cloudy
2:53 PM 72.0 °F - 37.9 °F 29% 30.06 in 10.0 mi Variable 4.6 mph - N/A   Scattered Clouds
3:53 PM 72.0 °F - 37.0 °F 28% 30.04 in 10.0 mi East 6.9 mph - N/A   Scattered Clouds
4:53 PM 73.9 °F - 37.0 °F 26% 30.03 in 10.0 mi ENE 12.7 mph - N/A   Scattered Clouds
5:16 PM 73.0 °F - 36.0 °F 26% 30.08 in 10.0 mi East 8.1 mph - N/A Thunderstorm Thunderstorm
5:53 PM 66.2 °F - 41.0 °F 40% 30.09 in 10.0 mi NW 3.5 mph - N/A Thunderstorm Thunderstorm
6:07 PM 70.0 °F - 41.0 °F 35% 30.09 in 10.0 mi NE 6.9 mph - N/A   Scattered Clouds
6:53 PM 68.0 °F - 41.0 °F 37% 30.05 in 10.0 mi SSE 3.5 mph - N/A   Scattered Clouds
7:53 PM 63.0 °F - 45.0 °F 52% 30.08 in 10.0 mi WNW 8.1 mph - 0.02 in Rain Light Rain
8:53 PM 64.9 °F - 41.0 °F 42% 30.07 in 10.0 mi Calm Calm - 0.00 in   Scattered Clouds
9:53 PM 64.0 °F - 39.0 °F 40% 30.07 in 10.0 mi East 3.5 mph - N/A   Partly Cloudy
10:53 PM 59.0 °F - 42.8 °F 55% 30.12 in 10.0 mi SSW 9.2 mph - N/A   Mostly Cloudy
11:53 PM 55.9 °F - 44.1 °F 64% 30.08 in 10.0 mi SSW 6.9 mph - N/A   Scattered Clouds